{"data":{"norad_id":35498,"epoch":"2026-09-20T03:39:18.867744Z","epoch_age_seconds":48280,"freshness":"FRESH","line1":"1 35498U 09036A   26263.15230171  .00000012  00000+0  19479-4 0  9992","line2":"2 35498  82.4903  33.4147 0006807  12.6113 347.5135 12.40872121779429","mean_motion":12.40872121,"eccentricity":0.0006807,"inclination_deg":82.4903,"raan_deg":33.4147,"arg_perigee_deg":12.6113,"mean_anomaly_deg":347.5135,"bstar":1.9479e-5,"rev_number":77942,"period_min":116.04741339821,"perigee_km":1497.5436601913,"apogee_km":1508.272915246,"semimajor_km":7881.0452877187,"source":"CELESTRAK","updated_at":"2026-09-20T09:00:13.706308Z"}}